Puyallup, WA
on Friday, January 4, 2013

Friday
Previous Day Next Day
Daily Summary
 ActualAverage (KSEA)Record (KSEA)
Temperature
Mean Temperature °F 41°F  
Max Temperature 50°F 46°F 61°F (1984)
Min Temperature 35°F 36°F 14°F (1950)
Degree Days
Heating Degree Days 22 24  
Month to date heating degree days 96  
Since 1 July heating degree days 2034  
Cooling Degree Days 0 0  
Month to date cooling degree days 0  
Year to date cooling degree days 0  
Moisture
Dew Point 41°F   
Average Humidity 98    
Maximum Humidity 100    
Minimum Humidity 82    
Precipitation
Precipitation 0.07 in 0.19 in 1.56 in (1967)
Month to date precipitation 0.74  
Year to date precipitation 0.74  
Snow
Snow 0.00 in in 5.90 in (1967)
Month to date snowfall  
Since 1 July snowfall  
Snow Depth in   
Wind
Wind Speed 0 mph   
Max Wind Speed 0 mph   
Max Gust Speed mph   
Visibility 7 miles   
Events Fog , Rain   

Key: T is trace of precipitation, MM is missing value
Source: NWS Daily Summary
Time(PST)TemperatureDew PointHumidity Pressure Visibility Wind DirectionWind SpeedGust SpeedPrecipitationEvents Conditions
12:15 AM 35.6°F 35.6°F 100% 30.16 in 3.0 miles Calm Calm - N/A Rain Light Rain
12:35 AM 35.6°F 35.6°F 100% 30.17 in 1.5 miles Calm Calm - 0.01 in Rain Light Rain
12:55 AM 35.6°F 35.6°F 100% 30.17 in 1.0 miles Calm Calm - 0.02 in Rain Light Rain
1:15 AM 35.6°F 35.6°F 100% 30.18 in 0.5 miles Calm Calm - 0.01 in Rain Light Rain
3:55 AM 39.2°F 39.2°F 100% 30.23 in 3.0 miles Calm Calm - 0.04 in   Overcast
4:15 AM 39.2°F 39.2°F 100% 30.23 in 5.0 miles Calm Calm - N/A   Overcast
4:35 AM 39.2°F 39.2°F 100% 30.23 in 4.0 miles Calm Calm - N/A Rain Light Rain
5:15 AM 41.0°F 41.0°F 100% 30.24 in 5.0 miles Calm Calm - N/A   Overcast
5:35 AM 41.0°F 41.0°F 100% 30.24 in 5.0 miles Calm Calm - N/A   Mostly Cloudy
5:55 AM 41.0°F 41.0°F 100% 30.24 in 10.0 miles Calm Calm - N/A   Scattered Clouds
6:15 AM 41.0°F 41.0°F 100% 30.25 in 10.0 miles Calm Calm - N/A   Scattered Clouds
6:35 AM 42.8°F 42.8°F 100% 30.25 in 10.0 miles Calm Calm - N/A   Mostly Cloudy
6:55 AM 42.8°F 42.8°F 100% 30.26 in 10.0 miles Calm Calm - N/A Rain Light Rain
7:15 AM 41.0°F 41.0°F 100% 30.27 in 10.0 miles Calm Calm - N/A   Mostly Cloudy
7:35 AM 41.0°F 41.0°F 100% 30.27 in 9.0 miles Calm Calm - N/A Rain Light Rain
7:55 AM 41.0°F 41.0°F 100% 30.27 in 5.0 miles Calm Calm - N/A   Mostly Cloudy
8:15 AM 41.0°F 41.0°F 100% 30.27 in 4.0 miles Calm Calm - N/A   Mostly Cloudy
8:35 AM 41.0°F 41.0°F 100% 30.28 in 5.0 miles Calm Calm - N/A   Mostly Cloudy
8:55 AM 41.0°F 41.0°F 100% 30.30 in 10.0 miles Calm Calm - N/A   Mostly Cloudy
9:15 AM 44.6°F 44.6°F 100% 30.31 in 10.0 miles Calm Calm - N/A   Scattered Clouds
9:35 AM 44.6°F 44.6°F 100% 30.31 in 10.0 miles Calm Calm - N/A   Mostly Cloudy
9:55 AM 44.6°F 44.6°F 100% 30.32 in 10.0 miles Calm Calm - N/A   Scattered Clouds
10:15 AM 44.6°F 44.6°F 100% 30.32 in 10.0 miles Calm Calm - N/A   Partly Cloudy
10:35 AM 44.6°F 44.6°F 100% 30.32 in 10.0 miles Calm Calm - N/A   Partly Cloudy
10:55 AM 46.4°F 44.6°F 93% 30.32 in 10.0 miles Calm Calm - N/A   Partly Cloudy
11:15 AM 46.4°F 44.6°F 93% 30.31 in 10.0 miles Calm Calm - N/A   Clear
11:35 AM 46.4°F 44.6°F 93% 30.30 in 10.0 miles Calm Calm - N/A   Clear
11:55 AM 48.2°F 46.4°F 93% 30.29 in 10.0 miles Calm Calm - N/A   Partly Cloudy
12:15 PM 48.2°F 46.4°F 93% 30.29 in 10.0 miles Calm Calm - N/A   Scattered Clouds
12:35 PM 50.0°F 44.6°F 82% 30.28 in 10.0 miles Calm Calm - N/A   Scattered Clouds
12:55 PM 50.0°F 46.4°F 87% 30.27 in 10.0 miles Calm Calm - N/A   Scattered Clouds
1:15 PM 48.2°F 44.6°F 87% 30.27 in 10.0 miles Calm Calm - N/A   Mostly Cloudy
1:35 PM 48.2°F 44.6°F 87% 30.26 in 10.0 miles Calm Calm - N/A   Mostly Cloudy
1:55 PM 48.2°F 44.6°F 87% 30.25 in 10.0 miles Calm Calm - N/A   Mostly Cloudy
2:15 PM 48.2°F 46.4°F 93% 30.25 in 10.0 miles Calm Calm - N/A   Mostly Cloudy
2:55 PM 48.2°F 44.6°F 87% 30.25 in 10.0 miles Calm Calm - N/A   Mostly Cloudy
3:35 PM 46.4°F 44.6°F 93% 30.24 in 10.0 miles Calm Calm - N/A   Clear
3:55 PM 46.4°F 44.6°F 93% 30.24 in 10.0 miles Calm Calm - N/A   Clear
4:15 PM 46.4°F 44.6°F 93% 30.24 in 10.0 miles Calm Calm - N/A   Clear
4:35 PM 44.6°F 44.6°F 100% 30.23 in 10.0 miles Calm Calm - N/A   Clear
4:55 PM 42.8°F 42.8°F 100% 30.22 in 10.0 miles Calm Calm - N/A   Clear
5:15 PM 41.0°F 41.0°F 100% 30.21 in 10.0 miles Calm Calm - N/A   Clear
5:35 PM 41.0°F 41.0°F 100% 30.21 in 10.0 miles Calm Calm - N/A   Clear
5:55 PM 39.2°F 39.2°F 100% 30.20 in 10.0 miles Calm Calm - N/A   Clear
6:15 PM 39.2°F 39.2°F 100% 30.20 in 9.0 miles Calm Calm - N/A   Clear
6:35 PM 39.2°F 39.2°F 100% 30.20 in 8.0 miles Calm Calm - N/A   Clear
6:55 PM 39.2°F 39.2°F 100% 30.19 in 5.0 miles Calm Calm - N/A   Clear
7:15 PM 39.2°F 39.2°F 100% 30.20 in 2.0 miles Calm Calm - N/A   Clear
7:35 PM 39.2°F 39.2°F 100% 30.19 in 6.0 miles Calm Calm - N/A   Clear
7:55 PM 39.2°F 39.2°F 100% 30.19 in 1.0 miles Calm Calm - N/A   Clear
8:15 PM 39.2°F 39.2°F 100% 30.19 in 4.0 miles Calm Calm - N/A   Clear
8:35 PM 39.2°F 39.2°F 100% 30.19 in 1.2 miles Calm Calm - N/A   Clear
8:55 PM 37.4°F 37.4°F 100% 30.18 in 0.5 miles Calm Calm - N/A Fog Fog
9:15 PM 37.4°F 37.4°F 100% 30.18 in 3.0 miles Calm Calm - N/A   Clear
9:35 PM 37.4°F 37.4°F 100% 30.17 in 3.0 miles Calm Calm - N/A   Clear
9:55 PM 37.4°F 37.4°F 100% 30.17 in 3.0 miles Calm Calm - N/A   Clear
10:15 PM 37.4°F 37.4°F 100% 30.17 in 3.0 miles Calm Calm - N/A   Clear
10:35 PM 37.4°F 37.4°F 100% 30.17 in 3.0 miles Calm Calm - N/A   Clear
10:55 PM 39.2°F 39.2°F 100% 30.16 in 3.0 miles Calm Calm - N/A   Clear
11:15 PM 37.4°F 37.4°F 100% 30.16 in 1.2 miles Calm Calm - N/A   Clear
11:35 PM 37.4°F 37.4°F 100% 30.15 in 0.5 miles Calm Calm - N/A Fog Fog
11:55 PM 37.4°F 37.4°F 100% 30.16 in 1.2 miles Calm Calm - N/A   Clear
Moon Phase
Jan. 04 Jan. 04 Jan. 11 Jan. 18 Jan. 26
Sunrise:07:55 AM (PST) Moon Rise:No Moon Rise/
Sunset:04:33 PM (PST) Moon Set:11:09 AM (PST)1/4

Copyright © 2014 The Weather Underground, Inc.